Weather History for Stevens Point, WI

Change the Weather History Date:

Tuesday, May 8, 2012

  Actual Average Record
Temperature  
Mean Temperature 53 °F -  
Max Temperature 62 °F 64 °F 86 °F (1953)
Min Temperature 45 °F 43 °F 21 °F (1954)
Degree Days  
Heating Degree Days 12    
Growing Degree Days 3 (Base 50)    
Moisture  
Dew Point 43 °F    
Average Humidity 71    
Maximum Humidity 95    
Minimum Humidity 40    
Precipitation  
Precipitation 0.04 in - - ()
Sea Level Pressure  
Sea Level Pressure 29.84 in    
Wind  
Wind Speed 5 mph (West)    
Max Wind Speed 13 mph    
Max Gust Speed 18 mph    
Visibility 10 miles    
Events Rain , Thunderstorm    
Averages and records for this station are not official NWS values.
T = Trace of Precipitation, MM = Missing Value Source: NWS Daily Summary

Daily Weather History Graph

Daily Weather History Graph

Search for Another Location

Airport:

Trip Planner

Search our weather history database for the weather conditions in past years. The results will help you decide how hot, cold, wet, or windy it might be!

Date:

Astronomy

May. 08, 2012 Rise Set
Actual Time 5:38 AM CDT 8:11 PM CDT
Civil Twilight 5:05 AM CDT 8:44 PM CDT
Nautical Twilight 4:23 AM CDT 9:26 PM CDT
Astronomical Twilight 3:37 AM CDT 10:13 PM CDT
Moon 11:25 PM CDT (5/8) 7:42 AM CDT (5/8)
Length of Visible Light 15h 39m
Length of Day
14h 33m
Waning Gibbous, 90% of the Moon is Illuminated
May 8
Waning Gibbous
May 12
Last Quarter
May 20
New
May 28
First Quarter
Jun 4
Full

Hourly Weather History & Observations

Time (CDT) Temp. Windchill Dew Point Humidity Pressure Visibility Wind Dir Wind Speed Gust Speed Precip Events Conditions
12:15 AM 52.0 °F - 43.7 °F 73% 29.86 in 10.0 mi West 4.6 mph - N/A   Clear
12:35 AM 51.1 °F - 43.3 °F 75% 29.85 in 10.0 mi WSW 3.5 mph - N/A   Clear
12:55 AM 51.1 °F - 43.0 °F 74% 29.85 in 10.0 mi WSW 3.5 mph - N/A   Clear
1:15 AM 50.5 °F - 42.8 °F 75% 29.85 in 10.0 mi WSW 3.5 mph - N/A   Clear
1:35 AM 47.1 °F - 41.9 °F 82% 29.85 in 10.0 mi WSW 3.5 mph - N/A   Clear
1:55 AM 49.3 °F - 42.6 °F 78% 29.85 in 10.0 mi WSW 3.5 mph - N/A   Clear
2:15 AM 49.6 °F - 42.4 °F 76% 29.84 in 10.0 mi Calm Calm - N/A   Clear
2:35 AM 49.6 °F - 42.8 °F 77% 29.85 in 10.0 mi West 4.6 mph - N/A   Clear
2:55 AM 49.5 °F - 42.8 °F 78% 29.84 in 10.0 mi West 5.8 mph - N/A   Clear
3:15 AM 49.5 °F - 42.8 °F 78% 29.84 in 10.0 mi Calm Calm - N/A   Clear
3:35 AM 49.1 °F - 42.4 °F 78% 29.84 in 10.0 mi West 3.5 mph - N/A   Clear
3:55 AM 48.9 °F - 41.9 °F 77% 29.84 in 10.0 mi West 3.5 mph - N/A   Clear
4:15 AM 48.6 °F - 41.2 °F 76% 29.84 in 10.0 mi WNW 3.5 mph - N/A   Clear
4:35 AM 47.8 °F - 41.0 °F 77% 29.83 in 10.0 mi WNW 3.5 mph - N/A   Clear
4:55 AM 47.3 °F - 40.8 °F 78% 29.83 in 10.0 mi Calm Calm - N/A   Clear
5:15 AM 46.6 °F - 40.5 °F 79% 29.83 in 10.0 mi Calm Calm - N/A   Clear
5:35 AM 45.9 °F - 40.3 °F 81% 29.83 in 10.0 mi Calm Calm - N/A   Clear
5:55 AM 45.5 °F 44.2 °F 40.3 °F 82% 29.83 in 10.0 mi WNW 3.5 mph - N/A   Clear
6:35 AM 46.2 °F 45.0 °F 41.0 °F 82% 29.83 in 10.0 mi West 3.5 mph - N/A   Clear
6:55 AM 47.3 °F - 40.6 °F 78% 29.83 in 10.0 mi West 4.6 mph - N/A   Clear
7:15 AM 48.6 °F - 40.5 °F 74% 29.84 in 10.0 mi West 5.8 mph - N/A   Clear
7:55 AM 50.4 °F - 40.8 °F 70% 29.85 in 10.0 mi West 6.9 mph - N/A   Clear
8:15 AM 51.4 °F - 40.8 °F 67% 29.85 in 10.0 mi West 5.8 mph - N/A   Clear
8:35 AM 52.7 °F - 41.2 °F 65% 29.84 in 10.0 mi WSW 8.1 mph - N/A   Clear
8:55 AM 53.6 °F - 41.2 °F 63% 29.84 in 10.0 mi West 4.6 mph - N/A   Clear
9:15 AM 55.0 °F - 42.1 °F 62% 29.84 in 10.0 mi West 5.8 mph - N/A   Clear
9:35 AM 55.9 °F - 42.4 °F 61% 29.84 in 10.0 mi West 5.8 mph - N/A   Clear
9:55 AM 56.3 °F - 42.1 °F 59% 29.84 in 10.0 mi West 9.2 mph - N/A   Clear
10:15 AM 56.5 °F - 41.4 °F 57% 29.84 in 10.0 mi West 6.9 mph - N/A   Clear
10:35 AM 57.0 °F - 41.4 °F 56% 29.83 in 10.0 mi West 9.2 mph - N/A   Clear
10:55 AM 58.3 °F - 42.6 °F 56% 29.83 in 10.0 mi WSW 9.2 mph - N/A   Mostly Cloudy
11:15 AM 59.0 °F - 41.2 °F 52% 29.83 in 10.0 mi West 10.4 mph 17.3 mph N/A   Scattered Clouds
11:35 AM 59.5 °F - 40.1 °F 49% 29.83 in 10.0 mi WSW 11.5 mph 17.3 mph N/A   Scattered Clouds
11:55 AM 58.5 °F - 40.5 °F 51% 29.83 in 10.0 mi SW 4.6 mph 9.2 mph N/A   Overcast
12:15 PM 59.5 °F - 39.7 °F 48% 29.83 in 10.0 mi West 8.1 mph 18.4 mph N/A   Overcast
12:35 PM 59.7 °F - 40.6 °F 49% 29.82 in 10.0 mi West 9.2 mph 18.4 mph N/A   Overcast
12:55 PM 59.4 °F - 40.3 °F 49% 29.82 in 10.0 mi NW 10.4 mph 17.3 mph N/A   Mostly Cloudy
1:15 PM 59.0 °F - 40.5 °F 50% 29.81 in 10.0 mi West 10.4 mph 16.1 mph N/A   Mostly Cloudy
1:35 PM 59.0 °F - 40.3 °F 50% 29.82 in 10.0 mi West 12.7 mph 18.4 mph N/A   Overcast
1:55 PM 58.5 °F - 42.3 °F 55% 29.81 in 10.0 mi West 5.8 mph - N/A   Mostly Cloudy
2:15 PM 60.1 °F - 39.0 °F 46% 29.81 in 10.0 mi West 6.9 mph - N/A   Scattered Clouds
2:35 PM 61.2 °F - 36.3 °F 40% 29.81 in 10.0 mi WSW 9.2 mph - N/A   Scattered Clouds
2:55 PM 60.6 °F - 39.7 °F 46% 29.81 in 10.0 mi West 11.5 mph 16.1 mph N/A   Scattered Clouds
3:15 PM 61.2 °F - 39.2 °F 44% 29.81 in 10.0 mi NNW 10.4 mph 17.3 mph N/A   Mostly Cloudy
3:35 PM 55.2 °F - 45.1 °F 69% 29.81 in 7.0 mi NE 6.9 mph - 0.02 in Rain Rain
3:55 PM 54.0 °F - 47.1 °F 78% 29.82 in 10.0 mi NNE 8.1 mph - 0.04 in Rain Heavy Rain
4:15 PM 53.8 °F - 44.2 °F 70% 29.83 in 10.0 mi WSW 10.4 mph 18.4 mph N/A Rain , Thunderstorm Light Thunderstorms and Rain
4:35 PM 51.8 °F - 43.9 °F 74% 29.83 in 10.0 mi WSW 10.4 mph 18.4 mph N/A Rain Light Rain
4:55 PM 51.8 °F - 44.4 °F 76% 29.83 in 10.0 mi SW 12.7 mph 18.4 mph N/A Rain Light Rain
5:15 PM 51.8 °F - 45.1 °F 78% 29.83 in 10.0 mi WSW 8.1 mph 16.1 mph N/A   Mostly Cloudy
5:35 PM 52.7 °F - 44.6 °F 74% 29.83 in 10.0 mi WSW 6.9 mph - N/A   Mostly Cloudy
5:55 PM 52.3 °F - 44.4 °F 74% 29.83 in 10.0 mi West 3.5 mph - N/A Rain Light Rain
6:15 PM 53.1 °F - 44.6 °F 73% 29.83 in 10.0 mi West 5.8 mph - N/A   Mostly Cloudy
6:35 PM 54.1 °F - 43.0 °F 66% 29.84 in 10.0 mi WNW 6.9 mph - N/A   Scattered Clouds
6:55 PM 53.6 °F - 42.1 °F 65% 29.84 in 10.0 mi West 4.6 mph - N/A   Mostly Cloudy
7:15 PM 52.9 °F - 42.6 °F 68% 29.84 in 10.0 mi West 6.9 mph - N/A   Mostly Cloudy
7:35 PM 52.0 °F - 43.7 °F 73% 29.84 in 10.0 mi West 4.6 mph - N/A   Overcast
7:55 PM 51.1 °F - 43.3 °F 75% 29.84 in 10.0 mi NW 6.9 mph - N/A   Overcast
8:15 PM 50.0 °F - 44.1 °F 80% 29.84 in 10.0 mi WNW 4.6 mph - N/A   Overcast
8:35 PM 49.6 °F - 44.2 °F 82% 29.85 in 10.0 mi West 3.5 mph - N/A   Overcast
8:55 PM 49.5 °F - 44.6 °F 83% 29.86 in 10.0 mi Calm Calm - N/A   Overcast
9:15 PM 49.3 °F - 44.6 °F 84% 29.86 in 10.0 mi WNW 3.5 mph - N/A   Overcast
9:35 PM 49.1 °F - 45.5 °F 87% 29.87 in 10.0 mi NNW 3.5 mph - N/A Rain Rain
9:55 PM 48.4 °F - 46.4 °F 93% 29.88 in 10.0 mi Calm Calm - N/A Rain Light Rain
10:15 PM 48.4 °F - 46.6 °F 93% 29.88 in 10.0 mi Calm Calm - N/A   Overcast
10:35 PM 48.2 °F - 46.6 °F 94% 29.87 in 10.0 mi Calm Calm - N/A   Overcast
10:55 PM 47.8 °F - 46.6 °F 95% 29.87 in 10.0 mi Calm Calm - N/A   Overcast
11:15 PM 47.8 °F - 46.4 °F 95% 29.87 in 10.0 mi Calm Calm - N/A   Overcast
11:35 PM 47.7 °F - 46.0 °F 94% 29.88 in 10.0 mi NW 3.5 mph - N/A   Overcast
11:55 PM 47.3 °F - 45.5 °F 93% 29.88 in 10.0 mi North 4.6 mph - N/A   Overcast